Home > Time Zones > World Clock > Weather > Fiji > Nadi > Past weeks

Flag for Fiji Weather past 2 weeks in Nadi, Fiji

Now
77 °F

Passing clouds.


Feels Like: 78 °F
Forecast: 75 / 83 °F
Wind: No wind

Location: Nandi

Current Time: Jul 7, 2015 at 7:23:49 PM

Latest Report: Jul 7, 2015 at 7:00 PM


Visibility: N/A

Pressure: 29.92 "Hg

Humidity: 83%

Dew point: 72 °F

Location of NadiLocation

Historic Weather in Nadi — Graph

°F

Nadi temperature yesterday

Maximum temperature yesterday: 88 °F (at 2:00 PM)
Minimum temperature yesterday: 72 °F (at 4:00 AM)
Average temperature yesterday: 78 °F

Past Weeks' High & Low Weather Summary

 TemperatureHumidityPressure
High88 °F (Jul 4, 3:00 PM)100% (Jun 23, 1:00 AM)30.09 "Hg (Jun 23, 1:00 AM)
Low57 °F (Jul 1, 5:00 AM)47% (Jun 24, 4:00 PM)29.77 "Hg (Jun 23, 2:00 PM)
Average72 °F76%29.95 "Hg
* Reported Jun 22 6:00 PM — Jul 7 6:00 PM, Nadi, Weather by CustomWeather, © 2015

Note: Actual official high and low records may vary slightly from our data, if they occured in-between our weather recording intervals... More about our weather records

Advertising

Nadi weather history for previous 24 hours

 ConditionsComfort  
Time TempWeatherWind HumidityBarometerVisibility
6:00 PM
Tue, Jul 7
77 °FPassing clouds.6 mph83%29.92 "HgN/A
5:00 PM79 °FScattered clouds.10 mph79%29.89 "HgN/A
4:00 PM81 °FPassing clouds.9 mph74%29.86 "HgN/A
3:00 PM81 °FPassing clouds.10 mph74%29.89 "HgN/A
2:00 PM82 °FPassing clouds.12 mph70%29.89 "HgN/A
1:00 PM81 °FScattered clouds.9 mph79%29.92 "HgN/A
12:00 PM81 °FScattered clouds.8 mph74%29.95 "HgN/A
11:00 AM81 °FPartly sunny.7 mph66%29.98 "HgN/A
10:00 AM81 °FPartly sunny.7 mph70%29.98 "HgN/A
9:00 AM75 °FBroken clouds.5 mph89%29.98 "HgN/A
8:00 AM72 °FBroken clouds.2 mph94%29.95 "HgN/A
7:00 AM70 °FBroken clouds.3 mph88%29.92 "HgN/A
6:00 AM72 °FPassing clouds.3 mph94%29.92 "HgN/A
5:00 AM72 °FPassing clouds.5 mph94%29.89 "HgN/A
4:00 AM72 °FPassing clouds.3 mph94%29.89 "HgN/A
3:00 AM73 °FPassing clouds.6 mph94%29.92 "HgN/A
2:00 AM75 °FPassing clouds.7 mph89%29.95 "HgN/A
1:00 AM75 °FPassing clouds.5 mph89%29.95 "HgN/A
12:00 AM75 °FPassing clouds.8 mph89%29.95 "HgN/A
11:00 PM
Mon, Jul 6
75 °FPassing clouds.9 mph89%29.95 "HgN/A
10:00 PM75 °FPassing clouds.12 mph89%29.98 "HgN/A
9:00 PM75 °FPassing clouds.9 mph89%29.98 "HgN/A
8:00 PM77 °FPassing clouds.9 mph89%29.98 "HgN/A
7:00 PM77 °FPassing clouds.8 mph89%29.95 "HgN/A
Weather by CustomWeather, © 2015

See weather overviewHow to use our weather pages